Location: Shenandoah County Park
(38.9356°N, 78.4524°W)
Time: 12:00:12
(UTC-04:00)

ITAMSAT 1 - Visible Passes

Search period start: 21 September 2023 00:00
Search period end: 01 October 2023 00:00
Orbit: 782 x 796 km, 98.8° (Epoch: 20 September)

Date Brightness Start Highest point End Pass type
(mag) Time Alt. Az. Time Alt. Az. Time Alt. Az.
21 Sep 8.8 20:13:52 18° E 20:16:06 23° ENE 20:20:09 10° NNE visible
21 Sep 8.7 21:54:35 39° WSW 21:55:16 41° W 22:00:10 10° NNW visible
22 Sep 9.5 19:44:33 10° E 19:46:45 13° ENE 19:48:57 10° NE visible
22 Sep 7.6 21:24:39 63° S 21:25:28 80° WSW 21:30:42 10° NNW visible
23 Sep 7.8 20:54:43 45° ESE 20:55:48 53° ENE 21:00:51 10° N visible
23 Sep 10.0 22:35:26 17° W 22:35:31 17° W 22:38:53 10° NW visible
24 Sep 8.6 20:24:47 25° E 20:26:16 28° ENE 20:30:38 10° N visible
24 Sep 9.0 22:05:30 33° W 22:05:33 33° W 22:10:13 10° NNW visible
25 Sep 9.3 19:54:50 13° E 19:56:51 16° ENE 19:59:50 10° NNE visible
25 Sep 7.9 21:35:34 64° WSW 21:35:43 65° WSW 21:40:53 10° NNW visible
26 Sep 7.5 21:05:37 64° E 21:06:00 66° ENE 21:11:09 10° N visible
26 Sep 10.3 22:46:21 13° W 22:46:21 13° W 22:48:24 10° WNW visible
27 Sep 8.2 20:35:42 33° E 20:36:25 35° ENE 20:41:04 10° N visible
27 Sep 9.5 22:16:24 26° W 22:16:24 26° W 22:20:12 10° NW visible
28 Sep 9.0 20:05:45 18° E 20:06:58 19° ENE 20:10:32 10° NNE visible
28 Sep 8.4 21:46:28 50° W 21:46:28 50° W 21:51:02 10° NNW visible
29 Sep 9.6 19:37:27 10° ENE 19:37:38 10° ENE 19:37:50 10° NE visible
29 Sep 7.6 21:16:32 77° NNE 21:16:32 77° NNE 21:21:25 10° NNW visible
30 Sep 8.0 20:46:37 43° ENE 20:46:37 43° ENE 20:51:27 10° N visible
30 Sep 9.9 22:27:19 20° WNW 22:27:19 20° WNW 22:30:05 10° NW visible
